Flag for Germany Weather past 2 weeks in Coesfeld, North Rhine-Westphalia, Germany

Now
37 °F

Fog.


Feels Like: 33 °F
Forecast: 37 / 46 °F
Wind: 6 mph from West

Location: Rheine-Bentlage

Current Time: Mar 5, 2015 at 9:53:14 AM

Latest Report: Mar 5, 2015 at 8:20 AM


Visibility: 1 mi

Pressure: 30.60 "Hg

Humidity: 93%

Dew point: 36 °F

Location of CoesfeldLocation

Historic Weather in Coesfeld — Graph

°F

Coesfeld temperature yesterday

Maximum temperature yesterday: 45 °F (at 3:20 PM)
Minimum temperature yesterday: 34 °F (at 3:20 AM)
Average temperature yesterday: 39 °F

Past Weeks' High & Low Weather Summary

 TemperatureHumidityPressure
High52 °F (Mar 1, 12:20 PM)100% (Feb 18, 9:20 AM)30.74 "Hg (Feb 18, 9:20 AM)
Low30 °F (Feb 18, 8:20 AM)50% (Feb 28, 4:20 PM)29.30 "Hg (Feb 21, 5:20 AM)
Average39 °F83%29.87 "Hg
* Reported Feb 18 8:20 AM — Mar 5 8:20 AM, Coesfeld, Weather by CustomWeather, © 2015

Note: Actual official high and low records may vary slightly from our data, if they occured in-between our weather recording intervals... More about our weather records

Advertising

Coesfeld weather history for previous 24 hours

 ConditionsComfort  
Time TempWeatherWind HumidityBarometerVisibility
8:20 AM
Thu, Mar 5
37 °FFog.6 mph93%30.60 "Hg1 mi
7:20 AM36 °FFog.6 mph100%30.57 "Hg1 mi
6:20 AM36 °FChilly.5 mph100%30.57 "HgN/A
5:20 AM36 °FChilly.5 mph93%30.57 "HgN/A
4:20 AM36 °FChilly.7 mph93%30.54 "HgN/A
2:20 AM39 °FChilly.7 mph81%30.51 "HgN/A
1:20 AM39 °FChilly.8 mph81%30.48 "HgN/A
12:20 AM39 °FChilly.10 mph81%30.45 "HgN/A
11:20 PM
Wed, Mar 4
41 °FQuite cool.12 mph76%30.42 "HgN/A
10:20 PM41 °FQuite cool.14 mph76%30.39 "HgN/A
9:20 PM41 °FQuite cool.12 mph81%30.33 "HgN/A
8:20 PM41 °FQuite cool.14 mph87%30.30 "HgN/A
7:20 PM39 °FChilly.12 mph93%30.27 "HgN/A
6:20 PM39 °FChilly.13 mph87%30.24 "HgN/A
5:20 PM39 °FChilly.14 mph87%30.24 "HgN/A
4:20 PM45 °FQuite cool.20 mph66%30.18 "HgN/A
3:20 PM45 °FScattered showers. Partly sunny.15 mph71%30.18 "HgN/A
2:20 PM43 °FSprinkles. Broken clouds.14 mph71%30.18 "HgN/A
1:20 PM41 °FPartly sunny.12 mph81%30.18 "HgN/A
12:20 PM41 °FBroken clouds.10 mph76%30.18 "HgN/A
11:20 AM41 °FPartly sunny.12 mph76%30.15 "HgN/A
10:20 AM39 °FPartly sunny.10 mph81%30.15 "HgN/A
9:20 AM37 °FPartly sunny.9 mph87%30.12 "HgN/A
Weather by CustomWeather, © 2015

See weather overviewHow to use our weather pages